Tracking 25370 objects as of 25-Jan-2022
HD Live streaming from Space Station
objects crossing your sky now

PROBA 1

Track PROBA 1 now!
10-day predictions
PROBA 1 is classified as:


NORAD ID: 26958
Int'l Code: 2001-049B
Perigee: 535.3 km
Apogee: 638.0 km
Inclination: 97.8 °
Period: 96.3 minutes
Semi major axis: 6957 km
RCS: Unknown
Launch date: October 22, 2001
Source: European Space Agency (ESA)
Launch site: SRIHARIKOTA (SRI)

First a technology demonstration, then extended for one year for remote sensing; looks like a washing machine.
aabbcc
Your satellite tracking list
Your tracking list is empty




NASA's NSSDC Master Catalog

Two Line Element Set (TLE):
1 26958U 01049B   22024.83865308  .00000985  00000-0  88644-4 0  9991
2 26958  97.8026 345.0099 0073856 102.8346 258.1155 14.95924317103003
Source of the keplerian elements: AFSPC